This is the latest recevied weather packets stored in our database for station/object CE3MXM-12. If no packets are shown the sender has not sent any weather packets the latest 10 day(s).
| Time | Temp. | Humidity | Pressure | Rain* | Wind** | Luminosity | Snow |
|---|---|---|---|---|---|---|---|
| 1777798440 | 13.33° C | 38% | 1015.6 hPa | - | - | - | - |
| 1777798140 | 12.78° C | 39% | 1015.6 hPa | - | - | - | - |
| 1777797840 | 13.33° C | 39% | 1015.7 hPa | - | - | - | - |
| 1777797540 | 13.33° C | 38% | 1015.9 hPa | - | - | - | - |
| 1777797240 | 13.33° C | 38% | 1015.7 hPa | - | - | - | - |
| 1777796940 | 13.89° C | 38% | 1015.7 hPa | - | - | - | - |
| 1777796640 | 13.89° C | 37% | 1015.6 hPa | - | - | - | - |
| 1777796339 | 13.89° C | 37% | 1015.7 hPa | - | - | - | - |
| 1777796039 | 13.89° C | 37% | 1015.7 hPa | - | - | - | - |
| 1777795739 | 14.44° C | 36% | 1016 hPa | - | - | - | - |
| 1777795439 | 14.44° C | 36% | 1015.9 hPa | - | - | - | - |
| 1777795139 | 14.44° C | 36% | 1016.1 hPa | - | - | - | - |
| 1777794839 | 14.44° C | 36% | 1015.8 hPa | - | - | - | - |
| 1777794539 | 13.89° C | 37% | 1015.9 hPa | - | - | - | - |
| 1777794239 | 13.33° C | 39% | 1015.9 hPa | - | - | - | - |
| 1777793939 | 13.33° C | 40% | 1016 hPa | - | - | - | - |
| 1777793639 | 12.78° C | 41% | 1015.9 hPa | - | - | - | - |
| 1777793338 | 12.78° C | 41% | 1015.9 hPa | - | - | - | - |
| 1777793038 | 12.78° C | 42% | 1016.1 hPa | - | - | - | - |
| 1777792738 | 12.78° C | 42% | 1016.1 hPa | - | - | - | - |
| 1777792438 | 12.78° C | 41% | 1016 hPa | - | - | - | - |
| 1777792138 | 12.78° C | 41% | 1016 hPa | - | - | - | - |
| 1777791838 | 12.78° C | 41% | 1016.2 hPa | - | - | - | - |
| 1777791538 | 12.78° C | 41% | 1016.1 hPa | - | - | - | - |
| 1777791238 | 12.78° C | 42% | 1016.2 hPa | - | - | - | - |
* Rain since midnight (hover to see other rain measurements)
** Current wind speed in m/s (hover to see current wind gust speed)